Zurück zum Katalog

ATLAS 5 CENTAUR DEB

LostHEO
NORAD 49351·DEBRIS·🇺🇸 United States

Gestartet Oct 17, 2018 von Cape Canaveral Space Force Station

Loading…

Nächste Überflüge (nächste 24 Stunden)

TLE

VeraltetSource: Space-Track

Epoche: Jul 8, 2026, 03:44 UTC

1 49351U 18079FC  26189.15594430 -.00000110  00000-0  00000-0 0  9997
2 49351  13.2808  57.1463 4522319 262.9189  45.2405  1.72124784 30565

Verfolge ATLAS 5 CENTAUR DEB in Echtzeit mit AllMySat

Download on the App Store